OE2ATN Weather Reports


time (UTC)temp
F
wind
direction
speed
knots
gust
knots
rain 1hr
in
rain 24hr
in
rain mn
in
humidity
%
barometer
mb
20260507085554 56 158 0.0 0.9 0.00 0.00 0.00 66 1020.1
20260507085053 56 227 0.0 1.7 0.00 0.00 0.00 63 1020.1
20260507084553 56 159 0.9 1.7 0.00 0.00 0.00 66 1020.1
20260507084053 56 217 0.9 1.7 0.00 0.00 0.00 65 1020.1
20260507083553 56 196 0.0 1.7 0.00 0.00 0.00 65 1020.1
20260507083052 55 113 0.0 0.9 0.00 0.00 0.00 67 1020.1
20260507082552 54 247 0.0 2.6 0.00 0.00 0.00 67 1020.1
20260507082052 54 276 0.9 3.5 0.00 0.00 0.00 66 1020.1
20260507081552 54 290 0.9 5.2 0.00 0.00 0.00 67 1020.1
20260507081053 54 283 2.6 5.2 0.00 0.00 0.00 70 1020.1
20260507080553 54 281 3.5 4.3 0.00 0.00 0.00 69 1020.2
20260507080053 54 274 1.7 4.3 0.00 0.00 0.00 69 1020.1
20260507075552 54 265 1.7 3.5 0.00 0.00 0.00 70 1020.1
20260507075051 54 272 0.9 2.6 0.00 0.00 0.00 68 1020.1
20260507074551 54 20 0.0 1.7 0.00 0.00 0.00 71 1020.1
20260507074051 54 10 0.0 1.7 0.00 0.00 0.00 72 1020.2
20260507073552 53 313 0.0 0.9 0.00 0.00 0.00 73 1020.2
20260507073053 53 286 0.0 0.9 0.00 0.00 0.00 74 1020.2
20260507072552 53 337 0.0 1.7 0.00 0.00 0.00 74 1020.1
20260507072051 53 300 0.9 1.7 0.00 0.00 0.00 74 1020.1
20260507071551 53 288 0.0 0.9 0.00 0.00 0.00 74 1020.1
20260507071050 53 271 0.0 0.9 0.00 0.00 0.00 74 1020.1
20260507070551 52 266 0.0 0.0 0.00 0.00 0.00 74 1020.1
20260507070050 52 248 0.0 0.0 0.00 0.00 0.00 74 1020.1
20260507065550 52 190 0.0 0.0 0.00 0.00 0.00 74 1020.1
20260507065051 52 121 0.0 0.0 0.00 0.00 0.00 75 1020.0
20260507064550 52 121 0.0 0.0 0.00 0.00 0.00 75 1020.1
20260507064051 51 121 0.0 0.0 0.00 0.00 0.00 75 1020.1
20260507063551 51 121 0.0 0.0 0.00 0.00 0.00 75 1020.1
20260507063049 51 238 0.0 0.0 0.00 0.00 0.00 75 1020.1
20260507062549 51 238 0.0 0.0 0.00 0.00 0.00 74 1020.0
20260507062049 51 238 0.0 0.0 0.00 0.00 0.00 74 1020.0
20260507061550 51 255 0.0 0.0 0.00 0.00 0.00 74 1020.0
20260507061047 51 272 0.0 0.0 0.00 0.00 0.00 74 1020.0
20260507060547 51 272 0.0 0.0 0.00 0.00 0.00 74 1019.9
20260507060046 51 272 0.0 0.0 0.00 0.00 0.00 70 1019.8
20260507055545 50 272 0.0 0.0 0.00 0.00 0.00 71 1019.9
20260507055045 50 272 0.0 0.0 0.00 0.00 0.00 69 1019.9
20260507054543 50 272 0.0 0.0 0.00 0.00 0.00 69 1019.8
20260507054042 50 272 0.0 0.0 0.00 0.00 0.00 66 1019.7
20260507053543 49 272 0.0 0.0 0.00 0.00 0.00 65 1019.7
20260507053041 49 272 0.0 0.0 0.00 0.00 0.00 63 1019.7
20260507052540 49 272 0.0 0.0 0.00 0.00 0.00 59 1019.4
20260507052041 49 272 0.0 0.0 0.00 0.00 0.00 54 1019.4
20260507051540 49 259 0.0 0.0 0.00 0.00 0.00 55 1019.4
20260507051039 49 293 0.0 0.0 0.00 0.00 0.00 57 1019.4
20260507050539 49 293 0.0 0.0 0.00 0.00 0.00 59 1019.3
20260507050039 49 292 0.0 0.0 0.00 0.00 0.00 60 1019.3
20260507045537 49 293 0.0 0.0 0.00 0.00 0.00 59 1019.4
20260507045037 49 293 0.0 0.0 0.00 0.00 0.00 57 1019.3
20260507044538 49 292 0.0 0.0 0.00 0.00 0.00 59 1019.2
20260507044035 48 296 0.0 0.0 0.00 0.00 0.00 58 1019.1
20260507043534 48 288 0.0 0.0 0.00 0.00 0.00 61 1019.2
20260507043035 48 348 0.0 0.0 0.00 0.00 0.00 60 1019.1
20260507042535 48 313 0.0 0.0 0.00 0.00 0.00 60 1019.1
20260507042035 48 329 0.0 0.0 0.00 0.00 0.00 57 1019.1
20260507041535 47 327 0.0 0.0 0.00 0.00 0.00 53 1019.1
20260507041034 47 290 0.0 0.0 0.00 0.00 0.00 48 1018.9
20260507040534 47 290 0.0 0.0 0.00 0.00 0.00 47 1018.9
20260507040035 47 114 0.0 0.0 0.00 0.00 0.00 48 1018.8
20260507035534 47 114 0.0 0.0 0.00 0.00 0.00 49 1018.7
20260507035034 47 114 0.0 0.0 0.00 0.00 0.00 50 1018.8
20260507034534 47 114 0.0 0.0 0.00 0.00 0.00 51 1018.6
20260507034034 47 114 0.0 0.0 0.00 0.00 0.00 55 1018.6
20260507033535 47 120 0.0 0.0 0.00 0.00 0.00 56 1018.7
20260507033035 47 283 0.0 0.0 0.00 0.00 0.00 50 1018.7
20260507032534 47 282 0.0 0.0 0.00 0.00 0.00 51 1018.6
20260507032034 47 278 0.0 0.0 0.00 0.00 0.00 55 1018.6
20260507031535 47 312 0.0 0.0 0.00 0.00 0.00 53 1018.6
20260507031034 47 305 0.0 0.0 0.00 0.00 0.00 56 1018.7
20260507030535 47 347 0.0 0.0 0.00 0.00 0.00 56 1018.6
20260507030034 47 312 0.0 0.0 0.00 0.00 0.00 58 1018.6
20260507025534 47 276 0.0 0.0 0.00 0.00 0.00 61 1018.6
20260507025035 47 276 0.0 0.0 0.00 0.00 0.00 58 1018.5
20260507024534 47 276 0.0 0.0 0.00 0.00 0.00 58 1018.5
20260507024034 47 275 0.0 0.0 0.00 0.00 0.00 57 1018.6
20260507023534 47 305 0.0 0.9 0.00 0.00 0.00 56 1018.6
20260507023034 47 305 0.0 0.9 0.00 0.00 0.00 58 1018.5
20260507022534 47 110 0.0 0.0 0.00 0.00 0.00 65 1018.5
20260507022036 47 110 0.0 0.0 0.00 0.00 0.00 70 1018.6
20260507021534 48 110 0.0 0.0 0.00 0.00 0.00 72 1018.5
20260507021035 49 296 0.0 0.0 0.00 0.00 0.00 71 1018.4
20260507020535 49 295 0.0 0.0 0.00 0.00 0.00 69 1018.3
20260507020034 48 295 0.0 0.0 0.00 0.00 0.00 68 1018.1
20260507015534 48 292 0.0 0.9 0.00 0.00 0.00 69 1018.3
20260507015034 48 292 0.0 0.9 0.00 0.00 0.00 69 1018.3
20260507014534 48 288 0.0 0.9 0.00 0.00 0.00 68 1018.1
20260507014034 48 288 0.0 0.9 0.00 0.00 0.00 68 1018.1
20260507013534 48 271 0.0 0.9 0.00 0.00 0.00 68 1018.0
20260507013034 49 279 0.0 0.9 0.00 0.00 0.00 68 1018.1
20260507012534 49 323 0.0 0.9 0.00 0.00 0.00 67 1017.9
20260507012034 49 353 0.0 0.9 0.00 0.00 0.00 65 1017.8
20260507011534 49 31 0.0 0.9 0.00 0.00 0.00 66 1017.9
20260507011035 49 299 0.0 1.7 0.00 0.00 0.00 67 1017.8
20260507010534 48 313 0.0 1.7 0.00 0.00 0.00 69 1017.9
20260507010035 48 331 0.0 2.6 0.00 0.00 0.00 68 1017.8
20260507005535 48 345 0.0 3.5 0.00 0.00 0.00 68 1017.9
20260507005035 48 302 1.7 3.5 0.00 0.00 0.00 65 1017.9
20260507004535 47 295 1.7 3.5 0.00 0.00 0.00 62 1017.9
20260507004035 47 296 0.0 2.6 0.00 0.00 0.00 62 1017.9
20260507003534 47 305 1.7 2.6 0.00 0.00 0.00 62 1017.9
20260507003034 47 289 1.7 4.3 0.00 0.00 0.00 63 1018.0
20260507002534 47 282 2.6 4.3 0.00 0.00 0.00 63 1018.0
20260507002034 47 292 1.7 3.5 0.00 0.00 0.00 61 1018.0
20260507001534 47 285 1.7 2.6 0.00 0.00 0.00 68 1017.9
20260507001035 47 317 0.0 4.3 0.00 0.00 0.00 66 1017.9
20260507000534 48 296 1.7 4.3 0.00 0.00 0.00 70 1017.9
20260507000034 48 272 2.6 3.5 0.00 0.00 0.00 63 1017.8
20260506235534 48 302 0.0 1.7 0.00 0.00 0.00 68 1017.8
20260506235035 49 296 0.0 1.7 0.00 0.00 0.00 69 1017.9
20260506234534 49 298 0.0 1.7 0.00 0.00 0.00 73 1017.9
20260506234034 49 0 0.0 0.0 0.00 0.00 0.00 73 1017.8
20260506233534 49 285 0.0 0.0 0.00 0.00 0.00 72 1017.8
20260506233034 49 283 0.0 0.9 0.00 0.00 0.00 72 1017.8
20260506232535 49 281 0.0 0.9 0.00 0.00 0.00 72 1017.8
20260506232034 49 279 0.0 2.6 0.00 0.00 0.00 72 1017.9
20260506231534 49 310 0.0 2.6 0.00 0.00 0.00 68 1017.9
20260506231035 50 300 1.7 2.6 0.00 0.00 0.00 72 1017.9
20260506230534 50 313 1.7 2.6 0.00 0.00 0.00 72 1017.9
20260506230034 50 312 0.0 2.6 0.00 0.00 0.00 72 1017.8
20260506225535 49 345 0.9 2.6 0.00 0.00 0.00 70 1017.8
20260506225034 49 306 0.0 2.6 0.00 0.00 0.00 66 1017.8
20260506224534 49 310 0.9 2.6 0.00 0.00 0.00 72 1017.8
20260506224035 50 345 0.0 1.7 0.00 0.00 0.00 71 1017.7
20260506223534 50 295 0.0 1.7 0.00 0.00 0.00 72 1017.8
20260506223034 50 319 0.0 2.6 0.00 0.00 0.00 73 1017.7
20260506222533 50 300 0.9 2.6 0.00 0.00 0.00 73 1017.7
20260506222035 50 278 0.9 2.6 0.00 0.00 0.00 72 1017.6
20260506221534 50 306 1.7 2.6 0.00 0.00 0.00 70 1017.5
20260506221034 50 266 0.0 2.6 0.00 0.00 0.00 72 1017.4
20260506220533 50 309 0.0 2.6 0.00 0.00 0.00 72 1017.4
20260506220034 51 358 0.9 2.6 0.00 0.00 0.00 72 1017.2
20260506215534 51 324 0.9 3.5 0.00 0.00 0.00 73 1017.1
20260506215034 51 306 1.7 3.5 0.00 0.00 0.00 73 1017.1
20260506214535 51 299 0.9 3.5 0.00 0.00 0.00 73 1017.2
20260506214034 51 283 0.9 2.6 0.00 0.00 0.00 73 1017.1
20260506213535 51 302 0.9 6.1 0.00 0.00 0.00 74 1017.1
20260506213034 52 353 1.7 8.7 0.00 0.00 0.00 74 1017.0
20260506212534 52 272 5.2 8.7 0.00 0.00 0.00 74 1016.9
20260506212034 53 296 3.5 10.4 0.00 0.00 0.00 74 1016.7
20260506211534 53 290 7.8 10.4 0.00 0.00 0.00 74 1016.7
20260506211035 53 278 3.5 9.6 0.00 0.00 0.00 74 1016.7
20260506210535 53 276 3.5 9.6 0.00 0.00 0.00 74 1016.5
20260506210034 53 289 2.6 9.6 0.00 0.00 0.00 74 1016.5
20260506205534 53 281 5.2 8.7 0.00 0.00 0.00 74 1016.4
20260506205034 53 279 3.5 8.7 0.00 0.00 0.00 74 1016.3
20260506204534 53 283 6.1 10.4 0.00 0.00 0.00 74 1016.3
20260506204035 54 276 6.1 10.4 0.00 0.00 0.00 74 1016.3
20260506203534 54 271 5.2 10.4 0.00 0.00 0.00 74 1016.1
20260506203034 54 290 4.3 10.4 0.00 0.00 0.00 74 1016.2
20260506202534 54 255 4.3 11.3 0.00 0.00 0.00 74 1016.1
20260506202034 55 296 8.7 11.3 0.00 0.00 0.00 74 1016.0
20260506201535 55 309 6.1 9.6 0.00 0.00 0.00 73 1015.8
20260506201035 55 282 4.3 8.7 0.00 0.00 0.00 73 1015.7
20260506200534 55 282 6.1 11.3 0.00 0.00 0.00 72 1015.8
20260506200035 55 266 7.0 11.3 0.00 0.00 0.00 72 1015.9
20260506195535 56 272 6.1 11.3 0.00 0.00 0.00 71 1015.8
20260506195034 56 276 7.0 13.9 0.00 0.00 0.00 70 1015.8
20260506194534 56 264 7.0 13.9 0.00 0.00 0.00 69 1015.6
20260506194034 57 269 7.8 13.9 0.00 0.00 0.00 68 1015.6
20260506193534 57 281 8.7 12.2 0.00 0.00 0.00 66 1015.4
20260506193034 58 314 4.3 8.7 0.00 0.00 0.00 65 1015.4
20260506192534 58 282 3.5 7.8 0.00 0.00 0.00 65 1015.3
20260506192034 58 264 1.7 10.4 0.00 0.00 0.00 64 1015.3
20260506191534 58 17 3.5 13.9 0.00 0.00 0.00 64 1015.1
20260506191034 58 298 2.6 13.9 0.00 0.00 0.00 64 1014.8
20260506190535 58 259 7.8 13.0 0.00 0.00 0.00 64 1014.8
20260506190035 58 296 2.6 10.4 0.00 0.00 0.00 63 1014.5
20260506185534 59 282 5.2 8.7 0.00 0.00 0.00 62 1014.3
20260506185034 59 302 4.3 7.8 0.00 0.00 0.00 62 1014.3
20260506184534 59 290 4.3 8.7 0.00 0.00 0.00 61 1014.0
20260506184034 60 271 5.2 8.7 0.00 0.00 0.00 60 1013.7
20260506183535 60 306 1.7 13.0 0.00 0.00 0.00 60 1013.6
20260506183034 60 258 3.5 16.5 0.00 0.00 0.00 59 1013.6
20260506182534 61 285 9.6 16.5 0.00 0.00 0.00 58 1013.4
20260506182034 61 288 7.0 13.9 0.00 0.00 0.00 57 1013.2
20260506181534 62 293 6.1 13.9 0.00 0.00 0.00 55 1013.2
20260506181034 62 292 7.0 11.3 0.00 0.00 0.00 53 1013.1
20260506180535 63 282 7.0 10.4 0.00 0.00 0.00 51 1013.0
20260506180035 63 283 5.2 9.6 0.00 0.00 0.00 50 1012.9
20260506175535 64 266 2.6 9.6 0.00 0.00 0.00 49 1012.8
20260506175035 64 299 5.2 10.4 0.00 0.00 0.00 46 1012.5
20260506174534 64 293 5.2 10.4 0.00 0.00 0.00 47 1012.4
20260506174034 64 290 5.2 10.4 0.00 0.00 0.00 46 1012.3
20260506173535 64 279 5.2 10.4 0.00 0.00 0.00 46 1012.2
20260506173034 64 279 7.8 10.4 0.00 0.00 0.00 44 1012.1
20260506172534 65 281 7.0 10.4 0.00 0.00 0.00 45 1012.1
20260506172033 65 283 5.2 11.3 0.00 0.00 0.00 44 1011.9
20260506171534 65 285 7.8 11.3 0.00 0.00 0.00 44 1011.9
20260506171034 65 265 8.7 10.4 0.00 0.00 0.00 43 1011.7
20260506170534 66 281 5.2 7.8 0.00 0.00 0.00 43 1011.6
20260506170034 66 290 4.3 6.1 0.00 0.00 0.00 41 1011.5
20260506165533 66 296 3.5 7.8 0.00 0.00 0.00 42 1011.5
20260506165033 67 288 2.6 7.8 0.00 0.00 0.00 42 1011.3
20260506164533 67 271 3.5 9.6 0.00 0.00 0.00 40 1011.3
20260506164033 67 271 7.0 9.6 0.00 0.00 0.00 37 1011.2
20260506163532 67 223 4.3 9.6 0.00 0.00 0.00 37 1011.2
20260506163032 68 281 2.6 6.1 0.00 0.00 0.00 37 1011.2
20260506162533 68 102 0.9 6.1 0.00 0.00 0.00 38 1011.1
20260506162032 67 316 1.7 8.7 0.00 0.00 0.00 38 1011.1
20260506161533 68 305 5.2 8.7 0.00 0.00 0.00 40 1011.2
20260506161032 68 245 0.0 2.6 0.00 0.00 0.00 44 1011.1
20260506160532 68 302 0.9 2.6 0.00 0.00 0.00 45 1011.1
20260506160031 68 34 0.0 2.6 0.00 0.00 0.00 42 1011.1
20260506155532 68 283 0.0 3.5 0.00 0.00 0.00 41 1011.1
20260506155032 68 169 0.0 4.3 0.00 0.00 0.00 40 1011.1
20260506154531 68 83 0.9 4.3 0.00 0.00 0.00 41 1011.0
20260506154032 67 99 1.7 6.1 0.00 0.00 0.00 44 1011.0
20260506153531 67 117 1.7 9.6 0.00 0.00 0.00 45 1010.9
20260506153031 67 127 7.0 9.6 0.00 0.00 0.00 43 1010.9
20260506152531 67 47 3.5 13.0 0.00 0.00 0.00 42 1010.8
20260506152032 67 90 7.0 13.0 0.00 0.00 0.00 42 1010.8
20260506151531 67 107 8.7 12.2 0.00 0.00 0.00 41 1010.7
20260506151031 68 109 7.0 12.2 0.00 0.00 0.00 42 1010.8
20260506150531 68 86 5.2 8.7 0.00 0.00 0.00 42 1010.9
20260506150031 68 93 5.2 9.6 0.00 0.00 0.00 43 1010.8
20260506145530 69 109 6.1 9.6 0.00 0.00 0.00 44 1010.9
20260506145031 69 130 5.2 7.8 0.00 0.00 0.00 42 1011.0
20260506144530 70 87 3.5 6.1 0.00 0.00 0.00 38 1011.0
20260506144029 70 131 1.7 4.3 0.00 0.00 0.00 38 1010.9
20260506143530 70 93 2.6 5.2 0.00 0.00 0.00 40 1011.0
20260506143030 70 99 1.7 7.8 0.00 0.00 0.00 39 1011.0
20260506142530 70 65 2.6 7.8 0.00 0.00 0.00 38 1011.1
20260506142030 70 116 2.6 7.8 0.00 0.00 0.00 39 1011.1
20260506141530 70 128 3.5 6.1 0.00 0.00 0.00 40 1011.2
20260506141030 70 96 1.7 7.8 0.00 0.00 0.00 38 1011.3
20260506140530 70 128 4.3 7.8 0.00 0.00 0.00 41 1011.5
20260506140029 70 121 2.6 5.2 0.00 0.00 0.00 39 1011.5
20260506135529 70 157 3.5 6.1 0.00 0.00 0.00 38 1011.5
20260506135030 70 127 3.5 6.1 0.00 0.00 0.00 40 1011.5
20260506134530 71 93 3.5 6.1 0.00 0.00 0.00 40 1011.5
20260506134030 71 109 3.5 6.1 0.00 0.00 0.00 41 1011.5
20260506133529 70 80 2.6 8.7 0.00 0.00 0.00 40 1011.3
20260506133029 70 109 5.2 8.7 0.00 0.00 0.00 41 1011.5
20260506132528 69 135 4.3 7.8 0.00 0.00 0.00 40 1011.6
20260506132029 69 151 5.2 7.8 0.00 0.00 0.00 40 1011.8
20260506131529 69 161 3.5 7.8 0.00 0.00 0.00 41 1011.7
20260506131028 69 172 5.2 7.8 0.00 0.00 0.00 41 1011.8
20260506130528 69 157 2.6 9.6 0.00 0.00 0.00 41 1011.9
20260506130029 69 118 3.5 9.6 0.00 0.00 0.00 40 1011.9
20260506125528 69 147 3.5 9.6 0.00 0.00 0.00 40 1011.9
20260506125028 69 110 6.1 9.6 0.00 0.00 0.00 40 1011.8
20260506124528 69 118 0.9 5.2 0.00 0.00 0.00 39 1011.8
20260506124027 69 157 0.9 5.2 0.00 0.00 0.00 44 1011.9
20260506123528 68 93 1.7 8.7 0.00 0.00 0.00 41 1012.0
20260506123028 68 113 1.7 8.7 0.00 0.00 0.00 43 1012.0
20260506122528 68 120 3.5 7.8 0.00 0.00 0.00 41 1012.0
20260506122028 68 114 3.5 8.7 0.00 0.00 0.00 43 1012.1
20260506121527 68 113 5.2 8.7 0.00 0.00 0.00 42 1012.1
20260506121027 69 141 2.6 10.4 0.00 0.00 0.00 44 1012.1
20260506120527 69 106 4.3 10.4 0.00 0.00 0.00 39 1012.1
20260506120030 69 100 3.5 9.6 0.00 0.00 0.00 40 1012.1
20260506115526 68 83 3.5 11.3 0.00 0.00 0.00 43 1012.1
20260506115027 68 89 7.8 11.3 0.00 0.00 0.00 43 1012.2
20260506114526 68 89 3.5 10.4 0.00 0.00 0.00 40 1012.2
20260506114027 68 86 5.2 10.4 0.00 0.00 0.00 40 1012.2
20260506113526 67 99 0.0 8.7 0.00 0.00 0.00 40 1012.3
20260506113026 68 131 3.5 10.4 0.00 0.00 0.00 41 1012.3
20260506112527 68 110 0.9 10.4 0.00 0.00 0.00 39 1012.4
20260506112025 69 96 5.2 12.2 0.00 0.00 0.00 44 1012.5
20260506111525 69 90 7.0 12.2 0.00 0.00 0.00 42 1012.5
20260506111025 68 114 3.5 9.6 0.00 0.00 0.00 45 1012.5
20260506110526 67 124 6.1 9.6 0.00 0.00 0.00 41 1012.6
20260506110026 67 133 2.6 8.7 0.00 0.00 0.00 46 1012.8
20260506105527 67 113 3.5 10.4 0.00 0.00 0.00 40 1012.9
20260506105025 67 104 3.5 10.4 0.00 0.00 0.00 42 1012.9
20260506104526 68 118 5.2 12.2 0.00 0.00 0.00 40 1012.8
20260506104026 68 110 7.8 12.2 0.00 0.00 0.00 41 1013.0
20260506103525 68 86 2.6 7.8 0.00 0.00 0.00 41 1013.1
20260506103025 68 111 3.5 9.6 0.00 0.00 0.00 44 1013.2
20260506102524 67 92 3.5 9.6 0.00 0.00 0.00 43 1013.3
20260506102024 67 102 4.3 10.4 0.00 0.00 0.00 43 1013.3
20260506101525 67 92 5.2 10.4 0.00 0.00 0.00 42 1013.5
20260506101024 67 120 0.9 8.7 0.00 0.00 0.00 41 1013.6
20260506100524 68 92 5.2 7.8 0.00 0.00 0.00 41 1013.6
20260506100026 67 52 0.9 11.3 0.00 0.00 0.00 40 1013.5
20260506095523 67 89 5.2 11.3 0.00 0.00 0.00 41 1013.6
20260506095023 67 100 4.3 8.7 0.00 0.00 0.00 42 1013.6
20260506094523 66 121 4.3 7.8 0.00 0.00 0.00 42 1013.8
20260506094024 66 135 5.2 8.7 0.00 0.00 0.00 42 1013.8
20260506093523 65 110 5.2 10.4 0.00 0.00 0.00 47 1013.9
20260506093024 65 113 5.2 10.4 0.00 0.00 0.00 50 1014.0
20260506092524 65 68 3.5 8.7 0.00 0.00 0.00 52 1014.2
20260506092025 64 94 5.2 8.7 0.00 0.00 0.00 52 1014.0
20260506091524 64 73 3.5 8.7 0.00 0.00 0.00 51 1014.0
20260506091024 62 124 3.5 7.8 0.00 0.00 0.00 54 1014.0
20260506090523 61 130 2.6 6.1 0.00 0.00 0.00 67 1014.0
20260506090023 60 99 2.6 6.1 0.00 0.00 0.00 68 1014.2